• en France
  • Liste des pays
  • À 7 jours
  • Température de l'eau
  • Carte satellitaire
  • Carte météo
  • Widgets météo
  • user-avatar
    Se connecter

    Météo par heure à Ondjiva 

    Ce jour, 15 Novembre, Jeudi

    Heure Température Précipitation Vent Pression Humidité
    00:00 +27°C° 0 mm 2 m/s 666 mmHg 12%
    01:00 +26°C° 0 mm 2 m/s 666 mmHg 13%
    02:00 +26°C° 0 mm 2 m/s 666 mmHg 14%
    03:00 +25°C° 0 mm 2 m/s 666 mmHg 15%
    04:00 +24°C° 0 mm 2 m/s 666 mmHg 16%
    05:00 +25°C° 0 mm 2 m/s 666 mmHg 19%
    06:00 +26°C° 0 mm 2 m/s 667 mmHg 21%
    07:00 +27°C° 0 mm 2 m/s 667 mmHg 24%
    08:00 +30°C° 0 mm 2 m/s 668 mmHg 19%
    09:00 +34°C° 0 mm 2 m/s 668 mmHg 15%
    10:00 +36°C° 0 mm 1 m/s 669 mmHg 11%
    11:00 +39°C° 0 mm 2 m/s 668 mmHg 10%
    12:00 +40°C° 0 mm 3 m/s 668 mmHg 9%
    13:00 +42°C° 0 mm 3 m/s 667 mmHg 8%
    14:00 +42°C° 0 mm 3 m/s 667 mmHg 7%
    15:00 +42°C° 0 mm 3 m/s 666 mmHg 7%
    16:00 +42°C° 0 mm 3 m/s 666 mmHg 7%
    17:00 +39°C° 0 mm 3 m/s 666 mmHg 8%
    18:00 +38°C° 0 mm 3 m/s 666 mmHg 9%
    19:00 +36°C° 0 mm 2 m/s 666 mmHg 10%
    20:00 +35°C° 0 mm 2 m/s 666 mmHg 11%
    21:00 +34°C° 0 mm 2 m/s 666 mmHg 12%
    22:00 +32°C° 0 mm 2 m/s 667 mmHg 13%
    23:00 +31°C° 0 mm 2 m/s 666 mmHg 14%

    Demain, 16 Novembre, Vendredi

    Heure Température Précipitation Vent Pression Humidité
    00:00 +31°C° 0 mm 2 m/s 666 mmHg 15%
    01:00 +30°C° 0 mm 2 m/s 666 mmHg 17%
    02:00 +29°C° 0 mm 2 m/s 666 mmHg 18%
    03:00 +28°C° 0 mm 2 m/s 666 mmHg 20%
    04:00 +27°C° 0 mm 2 m/s 665 mmHg 22%
    05:00 +28°C° 0 mm 2 m/s 666 mmHg 20%
    06:00 +29°C° 0 mm 3 m/s 667 mmHg 18%
    07:00 +30°C° 0 mm 3 m/s 668 mmHg 17%
    08:00 +33°C° 0 mm 4 m/s 668 mmHg 14%
    09:00 +36°C° 0 mm 5 m/s 669 mmHg 11%
    10:00 +40°C° 0 mm 6 m/s 669 mmHg 7%
    11:00 +41°C° 0 mm 6 m/s 669 mmHg 7%
    12:00 +42°C° 0 mm 6 m/s 668 mmHg 6%
    13:00 +45°C° 0 mm 6 m/s 668 mmHg 5%
    14:00 +44°C° 0 mm 6 m/s 667 mmHg 4%
    15:00 +43°C° 0 mm 5 m/s 666 mmHg 4%
    16:00 +43°C° 0 mm 5 m/s 666 mmHg 4%
    17:00 +40°C° 0 mm 4 m/s 666 mmHg 5%
    18:00 +37°C° 0 mm 3 m/s 665 mmHg 6%
    19:00 +34°C° 0 mm 2 m/s 665 mmHg 7%
    20:00 +32°C° 0 mm 2 m/s 666 mmHg 7%
    21:00 +31°C° 0 mm 2 m/s 666 mmHg 8%
    22:00 +30°C° 0 mm 2 m/s 666 mmHg 8%
    23:00 +29°C° 0 mm 2 m/s 666 mmHg 9%

    Après-demain, 17 Novembre, Samedi

    Heure Température Précipitation Vent Pression Humidité
    00:00 +28°C° 0 mm 2 m/s 666 mmHg 10%
    01:00 +28°C° 0 mm 2 m/s 665 mmHg 11%
    02:00 +26°C° 0 mm 2 m/s 665 mmHg 15%
    03:00 +25°C° 0 mm 2 m/s 665 mmHg 20%
    04:00 +24°C° 0 mm 1 m/s 665 mmHg 24%
    05:00 +25°C° 0 mm 1 m/s 666 mmHg 24%
    06:00 +27°C° 0 mm 1 m/s 666 mmHg 24%
    07:00 +28°C° 0 mm 1 m/s 667 mmHg 24%
    08:00 +31°C° 0 mm 2 m/s 668 mmHg 20%
    09:00 +35°C° 0 mm 2 m/s 669 mmHg 16%
    10:00 +39°C° 0 mm 2 m/s 669 mmHg 12%
    11:00 +40°C° 0 mm 2 m/s 669 mmHg 10%
    12:00 +42°C° 0 mm 3 m/s 668 mmHg 8%
    13:00 +43°C° 0 mm 4 m/s 667 mmHg 7%
    14:00 +43°C° 0 mm 3 m/s 667 mmHg 7%
    15:00 +43°C° 0 mm 3 m/s 666 mmHg 6%
    16:00 +43°C° 0 mm 3 m/s 665 mmHg 6%
    17:00 +40°C° 0 mm 2 m/s 665 mmHg 8%
    18:00 +38°C° 0 mm 2 m/s 665 mmHg 9%
    19:00 +36°C° 0 mm 2 m/s 665 mmHg 10%
    20:00 +35°C° 0 mm 2 m/s 666 mmHg 12%
    21:00 +34°C° 0 mm 3 m/s 666 mmHg 15%
    22:00 +33°C° 0 mm 3 m/s 667 mmHg 17%
    23:00 +32°C° 0 mm 4 m/s 667 mmHg 24%

    18 Novembre, Dimanche

    Heure Température Précipitation Vent Pression Humidité
    00:00 +30°C° 0 mm 4 m/s 666 mmHg 31%
    01:00 +28°C° 0 mm 4 m/s 666 mmHg 38%
    02:00 +28°C° 0 mm 4 m/s 666 mmHg 41%
    03:00 +27°C° 0 mm 4 m/s 666 mmHg 43%
    04:00 +27°C° 0 mm 4 m/s 666 mmHg 45%
    05:00 +27°C° 0 mm 4 m/s 666 mmHg 45%
    06:00 +27°C° 0 mm 4 m/s 667 mmHg 45%
    07:00 +27°C° 0 mm 4 m/s 668 mmHg 45%
    08:00 +30°C° 0 mm 4 m/s 668 mmHg 38%
    09:00 +33°C° 0 mm 4 m/s 668 mmHg 31%
    10:00 +35°C° 0 mm 3 m/s 668 mmHg 23%
    11:00 +37°C° 0 mm 3 m/s 668 mmHg 20%
    12:00 +39°C° 0 mm 2 m/s 668 mmHg 17%
    13:00 +41°C° 0 mm 2 m/s 667 mmHg 14%
    14:00 +40°C° 0 mm 2 m/s 667 mmHg 14%
    15:00 +40°C° 0 mm 1 m/s 666 mmHg 14%
    16:00 +39°C° 0 mm 1 m/s 666 mmHg 13%
    17:00 +38°C° 0 mm 2 m/s 666 mmHg 16%
    18:00 +36°C° 0 mm 2 m/s 666 mmHg 18%
    19:00 +34°C° 0 mm 2 m/s 666 mmHg 20%
    20:00 +34°C° 0 mm 3 m/s 666 mmHg 22%
    21:00 +33°C° 0 mm 3 m/s 667 mmHg 25%
    22:00 +32°C° 0 mm 4 m/s 667 mmHg 27%
    23:00 +30°C° 0 mm 4 m/s 667 mmHg 29%

    19 Novembre, Lundi

    Heure Température Précipitation Vent Pression Humidité
    00:00 +29°C° 0 mm 4 m/s 667 mmHg 31%
    01:00 +28°C° 0 mm 5 m/s 666 mmHg 34%
    02:00 +27°C° 0 mm 4 m/s 666 mmHg 36%
    03:00 +26°C° 0 mm 3 m/s 666 mmHg 38%
    04:00 +25°C° 0 mm 2 m/s 665 mmHg 40%
    05:00 +26°C° 0 mm 2 m/s 666 mmHg 38%
    06:00 +27°C° 0 mm 2 m/s 667 mmHg 35%
    07:00 +27°C° 0 mm 2 m/s 668 mmHg 33%
    08:00 +29°C° 0 mm 2 m/s 668 mmHg 29%
    09:00 +32°C° 0 mm 2 m/s 668 mmHg 25%
    10:00 +35°C° 0 mm 2 m/s 668 mmHg 21%
    11:00 +37°C° 0 mm 2 m/s 668 mmHg 18%
    12:00 +40°C° 0 mm 1 m/s 668 mmHg 15%
    13:00 +42°C° 0 mm 1 m/s 667 mmHg 12%
    14:00 +41°C° 0 mm 1 m/s 667 mmHg 13%
    15:00 +40°C° 0 mm 1 m/s 666 mmHg 13%
    16:00 +39°C° 0 mm 1 m/s 665 mmHg 14%
    17:00 +37°C° 0 mm 1 m/s 665 mmHg 15%
    18:00 +35°C° 0 mm 1 m/s 665 mmHg 17%
    19:00 +34°C° 0 mm 1 m/s 665 mmHg 18%
    20:00 +33°C° 0 mm 1 m/s 666 mmHg 19%
    21:00 +32°C° 0 mm 1 m/s 666 mmHg 20%
    22:00 +31°C° 0 mm 1 m/s 666 mmHg 20%
    23:00 +31°C° 0 mm 2 m/s 666 mmHg 21%

    20 Novembre, Mardi

    Heure Température Précipitation Vent Pression Humidité
    00:00 +30°C° 0 mm 2 m/s 666 mmHg 22%
    01:00 +30°C° 0 mm 2 m/s 665 mmHg 23%
    02:00 +30°C° 0 mm 3 m/s 665 mmHg 23%
    03:00 +29°C° 0 mm 3 m/s 666 mmHg 23%
    04:00 +29°C° 0 mm 3 m/s 666 mmHg 23%
    05:00 +29°C° 0 mm 4 m/s 666 mmHg 22%
    06:00 +30°C° 0 mm 4 m/s 667 mmHg 22%
    07:00 +30°C° 0 mm 4 m/s 667 mmHg 21%
    08:00 +33°C° 0 mm 3 m/s 667 mmHg 19%
    09:00 +36°C° 0 mm 3 m/s 668 mmHg 16%
    10:00 +38°C° 0 mm 3 m/s 668 mmHg 13%
    11:00 +40°C° 0 mm 2 m/s 668 mmHg 12%
    12:00 +41°C° 0 mm 2 m/s 667 mmHg 11%
    13:00 +43°C° 0 mm 1 m/s 667 mmHg 11%
    14:00 +42°C° 0 mm 2 m/s 666 mmHg 11%
    15:00 +41°C° 0 mm 2 m/s 665 mmHg 11%
    16:00 +40°C° 0 mm 2 m/s 665 mmHg 12%
    17:00 +39°C° 0 mm 2 m/s 665 mmHg 13%
    18:00 +37°C° 0 mm 2 m/s 665 mmHg 14%
    19:00 +35°C° 0 mm 1 m/s 665 mmHg 15%
    20:00 +35°C° 0 mm 2 m/s 665 mmHg 16%
    21:00 +34°C° 0 mm 2 m/s 665 mmHg 17%
    22:00 +32°C° 0 mm 2 m/s 666 mmHg 19%
    23:00 +31°C° 0 mm 3 m/s 665 mmHg 19%
    Voir plus